Weather History for London-Corbin, KY

Change the Weather History Date:

Sunday, June 23, 2013

  Actual Average Record
Temperature  
Mean Temperature 74 °F 75 °F  
Max Temperature 85 °F 85 °F 96 °F (1988)
Min Temperature 62 °F 64 °F 44 °F (1972)
Degree Days  
Heating Degree Days 0 0  
Month to date heating degree days 0 7  
Since 1 June heating degree days 0 7  
Cooling Degree Days 9 10  
Month to date cooling degree days 165 171  
Year to date cooling degree days 265 285  
Since 1 June cooling degree days 165 171  
Growing Degree Days 24 (Base 50)    
Moisture  
Dew Point 64 °F    
Average Humidity 71    
Maximum Humidity 93    
Minimum Humidity 48    
Precipitation  
Precipitation 0.00 in 0.14 in 2.01 in (1969)
Month to date precipitation 4.84 3.43  
Year to date precipitation 27.85 23.96  
Sea Level Pressure  
Sea Level Pressure 30.14 in    
Wind  
Wind Speed 3 mph (SSW)    
Max Wind Speed 12 mph    
Max Gust Speed 16 mph    
Visibility 9 miles    
Events Thunderstorm    
T = Trace of Precipitation, MM = Missing Value Source: NWS Daily Summary

Daily Weather History Graph

Daily Weather History Graph

Search for Another Location

Airport:

Trip Planner

Search our weather history database for the weather conditions in past years. The results will help you decide how hot, cold, wet, or windy it might be!

Date:

Astronomy

Jun. 23, 2013 Rise Set
Actual Time 6:17 AM EDT 8:59 PM EDT
Civil Twilight 5:46 AM EDT 9:30 PM EDT
Nautical Twilight 5:07 AM EDT 10:09 PM EDT
Astronomical Twilight 4:24 AM EDT 10:52 PM EDT
Moon 9:13 PM EDT (6/23) 6:32 AM EDT (6/23)
Length of Visible Light 15h 44m
Length of Day
14h 42m
Full, 100% of the Moon is Illuminated
Jun 23
Full
Jun 30
Last Quarter
Jul 8
New
Jul 15
First Quarter
Jul 22
Full

Hourly Weather History & Observations

Time (EDT) Temp. Heat Index Dew Point Humidity Pressure Visibility Wind Dir Wind Speed Gust Speed Precip Events Conditions
12:53 AM 66.9 °F - 63.0 °F 87% 30.13 in 10.0 mi Calm Calm - N/A   Mostly Cloudy
1:53 AM 66.0 °F - 64.0 °F 93% 30.12 in 9.0 mi Calm Calm - N/A   Clear
2:53 AM 64.0 °F - 63.0 °F 96% 30.09 in 7.0 mi SSE 3.5 mph - N/A   Clear
3:53 AM 64.0 °F - 62.1 °F 93% 30.09 in 6.0 mi Calm Calm - N/A   Clear
4:53 AM 64.0 °F - 62.1 °F 93% 30.10 in 7.0 mi Calm Calm - N/A   Clear
5:53 AM 63.0 °F - 61.0 °F 93% 30.14 in 8.0 mi Calm Calm - N/A   Clear
6:53 AM 64.0 °F - 62.1 °F 93% 30.16 in 7.0 mi Calm Calm - N/A   Clear
7:53 AM 66.0 °F - 64.0 °F 93% 30.18 in 9.0 mi Calm Calm - N/A   Clear
8:53 AM 69.1 °F - 64.9 °F 87% 30.20 in 10.0 mi Calm Calm - N/A   Overcast
9:53 AM 72.0 °F - 66.9 °F 84% 30.20 in 10.0 mi South 3.5 mph - N/A   Partly Cloudy
10:53 AM 77.0 °F - 66.9 °F 71% 30.20 in 10.0 mi SSW 5.8 mph - N/A   Clear
11:53 AM 80.1 °F 81.9 °F 64.9 °F 60% 30.19 in 10.0 mi Variable 6.9 mph - N/A   Clear
12:53 PM 81.0 °F 82.7 °F 64.9 °F 58% 30.17 in 10.0 mi Variable 4.6 mph - N/A Thunderstorm Clear
1:01 PM 80.6 °F 82.3 °F 64.4 °F 58% 30.20 in 10.0 mi Variable 3.5 mph - N/A Thunderstorm Partly Cloudy
1:31 PM 80.6 °F 82.3 °F 64.4 °F 58% 30.19 in 10.0 mi SW 4.6 mph - N/A   Partly Cloudy
1:53 PM 81.0 °F 83.0 °F 66.0 °F 60% 30.15 in 10.0 mi WSW 3.5 mph - N/A   Clear
2:53 PM 82.9 °F 84.6 °F 64.9 °F 54% 30.13 in 10.0 mi South 5.8 mph - N/A   Clear
3:53 PM 84.9 °F 85.4 °F 62.1 °F 46% 30.12 in 10.0 mi South 8.1 mph - N/A   Partly Cloudy
4:53 PM 84.0 °F 84.5 °F 62.1 °F 47% 30.10 in 10.0 mi Variable 4.6 mph - N/A   Clear
5:53 PM 82.9 °F 83.7 °F 62.1 °F 49% 30.09 in 10.0 mi SW 9.2 mph - N/A Thunderstorm Partly Cloudy
6:21 PM 82.4 °F 83.4 °F 62.6 °F 51% 30.12 in 10.0 mi WSW 8.1 mph - N/A   Clear
6:53 PM 82.0 °F 83.1 °F 63.0 °F 52% 30.09 in 10.0 mi WSW 5.8 mph - N/A   Clear
7:53 PM 81.0 °F 82.5 °F 64.0 °F 56% 30.09 in 10.0 mi SSW 3.5 mph - N/A   Clear
8:53 PM 78.1 °F - 64.0 °F 62% 30.10 in 10.0 mi Calm Calm - N/A   Clear
9:53 PM 73.0 °F - 66.0 °F 79% 30.12 in 10.0 mi Calm Calm - N/A   Clear
10:53 PM 73.9 °F - 66.9 °F 79% 30.14 in 10.0 mi Calm Calm - N/A   Partly Cloudy
11:53 PM 70.0 °F - 66.0 °F 87% 30.15 in 6.0 mi Calm Calm - N/A   Clear